MAY1EU EFTU-LDZA

Flight info

Callsign MAY1EU
Flight time 2h 17m
Altitude 36000
Route UPAPU DCT LOGNA P31 MILTA L134 GARSO/N0439F380 DCT NIKMI N191 GRUDA DCT MIXAT/N0435F370 T720 REGLI/N0437F380 DCT XENAK DCT NEKIN
Aircraft B738/M-SDE2E3FGHIRWXY/LB1

Departure

Time 2026-04-17 10:26
Airport Turku Airport (EFTU)

Arrival

Time 2026-04-17 12:44
Airport Zagreb Franjo Tuđman International Airport (LDZA)
Time Latitude Longitude Altitude Speed Heading
2026-04-17 10:15 60.51180 22.27337 166 ft 0 kts 149°
2026-04-17 10:19 60.51198 22.27316 166 ft 4 kts 149°
2026-04-17 10:19 60.51221 22.27287 166 ft 4 kts 142°
2026-04-17 10:19 60.51237 22.27251 166 ft 4 kts 96°
2026-04-17 10:20 60.51236 22.27235 166 ft 1 kts 30°
2026-04-17 10:20 60.51234 22.27231 166 ft 0 kts 30°
2026-04-17 10:22 60.51234 22.27232 166 ft 1 kts 30°
2026-04-17 10:22 60.51269 22.27272 166 ft 11 kts 25°
2026-04-17 10:22 60.51331 22.27189 166 ft 15 kts 269°
2026-04-17 10:23 60.51321 22.26979 165 ft 15 kts 264°
2026-04-17 10:23 60.51312 22.26777 165 ft 14 kts 265°
2026-04-17 10:23 60.51303 22.26583 165 ft 14 kts 265°
2026-04-17 10:23 60.51286 22.26349 164 ft 21 kts 255°
2026-04-17 10:24 60.51229 22.26008 164 ft 30 kts 264°
2026-04-17 10:24 60.51209 22.25569 163 ft 31 kts 264°
2026-04-17 10:24 60.51189 22.25138 162 ft 30 kts 264°
2026-04-17 10:24 60.51171 22.24738 161 ft 28 kts 265°
2026-04-17 10:25 60.51154 22.24356 160 ft 26 kts 265°
2026-04-17 10:25 60.51212 22.24061 160 ft 25 kts 353°
2026-04-17 10:25 60.51322 22.24194 161 ft 19 kts 85°
2026-04-17 10:25 60.51335 22.24506 160 ft 44 kts 85°
2026-04-17 10:26 60.51390 22.25759 166 ft 131 kts 84°
2026-04-17 10:26 60.51493 22.27880 659 ft 160 kts 82°
2026-04-17 10:26 60.51599 22.30275 1550 ft 175 kts 82°
2026-04-17 10:26 60.51712 22.32712 2825 ft 171 kts 82°
2026-04-17 10:27 60.51825 22.35303 3531 ft 193 kts 82°
2026-04-17 10:27 60.51756 22.38090 4165 ft 206 kts 107°
2026-04-17 10:27 60.50836 22.40375 4642 ft 230 kts 146°
2026-04-17 10:27 60.49203 22.41182 4986 ft 254 kts 177°
2026-04-17 10:28 60.47407 22.41327 5676 ft 262 kts 175°
2026-04-17 10:28 60.45583 22.41572 6673 ft 262 kts 174°
2026-04-17 10:28 60.43763 22.41866 7564 ft 265 kts 173°
2026-04-17 10:28 60.41888 22.42593 8069 ft 285 kts 163°
2026-04-17 10:29 60.39941 22.43714 8767 ft 295 kts 162°
2026-04-17 10:29 60.37955 22.44909 9622 ft 300 kts 162°
2026-04-17 10:29 60.35930 22.46111 10452 ft 306 kts 162°
2026-04-17 10:29 60.33814 22.47342 10831 ft 329 kts 163°
2026-04-17 10:30 60.31548 22.48636 11253 ft 346 kts 163°
2026-04-17 10:30 60.29210 22.49950 12050 ft 350 kts 163°
2026-04-17 10:30 60.26849 22.51268 12885 ft 354 kts 163°
2026-04-17 10:30 60.24460 22.52596 13693 ft 359 kts 163°
2026-04-17 10:31 60.22039 22.53940 14437 ft 363 kts 163°
2026-04-17 10:31 60.19578 22.55270 15179 ft 367 kts 167°
2026-04-17 10:31 60.17051 22.55470 15869 ft 371 kts 189°
2026-04-17 10:31 60.14506 22.54467 16629 ft 375 kts 192°
2026-04-17 10:32 60.11927 22.53370 17276 ft 381 kts 192°
2026-04-17 10:32 60.09328 22.52255 18015 ft 384 kts 192°
2026-04-17 10:32 60.06700 22.51137 18728 ft 387 kts 192°
2026-04-17 10:32 60.04059 22.50027 19380 ft 389 kts 192°
2026-04-17 10:33 60.01392 22.48921 20069 ft 390 kts 192°
2026-04-17 10:33 59.98726 22.47825 20736 ft 392 kts 192°
2026-04-17 10:33 59.96078 22.46743 21349 ft 395 kts 191°
2026-04-17 10:33 59.93373 22.45644 21979 ft 398 kts 191°
2026-04-17 10:34 59.90651 22.44541 22611 ft 400 kts 191°
2026-04-17 10:34 59.87917 22.43436 23227 ft 402 kts 191°
2026-04-17 10:34 59.85169 22.42327 23823 ft 405 kts 191°
2026-04-17 10:34 59.82397 22.41210 24296 ft 408 kts 191°
2026-04-17 10:35 59.79597 22.40085 24737 ft 411 kts 191°
2026-04-17 10:35 59.76772 22.38951 25177 ft 415 kts 191°
2026-04-17 10:35 59.73929 22.37812 25617 ft 418 kts 191°
2026-04-17 10:35 59.71064 22.36666 26053 ft 421 kts 191°
2026-04-17 10:36 59.69153 22.35902 26334 ft 424 kts 191°
2026-04-17 10:36 59.65303 22.34367 26893 ft 428 kts 191°
2026-04-17 10:36 59.62377 22.33202 27303 ft 431 kts 191°
2026-04-17 10:36 59.59423 22.32029 27707 ft 434 kts 191°
2026-04-17 10:37 59.56453 22.30851 28104 ft 437 kts 191°
2026-04-17 10:37 59.54426 22.30049 28360 ft 439 kts 191°
2026-04-17 10:37 59.51452 22.28872 28742 ft 442 kts 191°
2026-04-17 10:37 59.48425 22.27678 29116 ft 445 kts 191°
2026-04-17 10:38 59.45370 22.26475 29486 ft 448 kts 191°
2026-04-17 10:38 59.42304 22.25269 29843 ft 451 kts 191°
2026-04-17 10:38 59.39213 22.24056 30185 ft 454 kts 191°
2026-04-17 10:38 59.36107 22.22839 30486 ft 456 kts 191°
2026-04-17 10:39 59.32985 22.21619 30789 ft 458 kts 191°
2026-04-17 10:39 59.29856 22.20398 31148 ft 459 kts 191°
2026-04-17 10:39 59.26730 22.19179 31582 ft 457 kts 191°
2026-04-17 10:39 59.23615 22.17968 32035 ft 455 kts 191°
2026-04-17 10:40 59.20553 22.16779 32429 ft 454 kts 191°
2026-04-17 10:40 59.17449 22.15577 32795 ft 454 kts 191°
2026-04-17 10:40 59.14350 22.14379 33181 ft 453 kts 191°
2026-04-17 10:40 59.11255 22.13184 33529 ft 453 kts 191°
2026-04-17 10:41 59.08161 22.11992 33885 ft 453 kts 191°
2026-04-17 10:41 59.05072 22.10804 34266 ft 451 kts 191°
2026-04-17 10:41 59.01984 22.09619 34577 ft 451 kts 191°
2026-04-17 10:41 58.98919 22.08445 34835 ft 451 kts 191°
2026-04-17 10:42 58.95833 22.07265 35083 ft 452 kts 191°
2026-04-17 10:42 58.92752 22.06089 35364 ft 452 kts 191°
2026-04-17 10:42 58.89666 22.04913 35640 ft 451 kts 191°
2026-04-17 10:42 58.86621 22.03755 35887 ft 452 kts 191°
2026-04-17 10:43 58.83525 22.02580 36067 ft 454 kts 191°
2026-04-17 10:43 58.80414 22.01401 36189 ft 456 kts 191°
2026-04-17 10:43 58.77297 22.00221 36225 ft 457 kts 191°
2026-04-17 10:44 58.71192 21.97917 36224 ft 454 kts 191°
2026-04-17 10:44 58.65002 21.95590 36227 ft 451 kts 191°
2026-04-17 10:45 58.58895 21.93303 36229 ft 449 kts 191°
2026-04-17 10:45 58.52768 21.91016 36229 ft 448 kts 191°
2026-04-17 10:46 58.46642 21.88738 36238 ft 449 kts 191°
2026-04-17 10:46 58.40499 21.86462 36225 ft 451 kts 191°
2026-04-17 10:47 58.34328 21.84183 36222 ft 453 kts 191°
2026-04-17 10:47 58.28125 21.81901 36222 ft 455 kts 191°
2026-04-17 10:48 58.21898 21.79617 36224 ft 457 kts 191°
2026-04-17 10:48 58.15640 21.77331 36216 ft 459 kts 191°
2026-04-17 10:49 58.09407 21.75062 36220 ft 460 kts 191°
2026-04-17 10:49 58.03116 21.72779 36218 ft 460 kts 191°
2026-04-17 10:50 57.96839 21.70510 36213 ft 460 kts 191°
2026-04-17 10:50 57.90545 21.68242 36212 ft 460 kts 191°
2026-04-17 10:51 57.84371 21.65205 36222 ft 459 kts 204°
2026-04-17 10:51 57.78918 21.59116 36235 ft 456 kts 217°
2026-04-17 10:52 57.73796 21.52096 36208 ft 456 kts 217°
2026-04-17 10:52 57.68605 21.45293 36214 ft 456 kts 213°
2026-04-17 10:53 57.63025 21.39834 36203 ft 456 kts 206°
2026-04-17 10:53 57.57297 21.34705 36203 ft 456 kts 206°
2026-04-17 10:54 57.51584 21.29531 36191 ft 456 kts 207°
2026-04-17 10:54 57.45885 21.24305 36199 ft 456 kts 207°
2026-04-17 10:55 57.40190 21.19074 36199 ft 456 kts 207°
2026-04-17 10:55 57.34497 21.13862 36196 ft 457 kts 207°
2026-04-17 10:56 57.28795 21.08663 36205 ft 457 kts 207°
2026-04-17 10:56 57.23120 21.03507 36197 ft 457 kts 207°
2026-04-17 10:57 57.17510 20.98429 36205 ft 457 kts 207°
2026-04-17 10:57 57.11793 20.93272 36216 ft 457 kts 207°
2026-04-17 10:58 57.06073 20.88129 36212 ft 458 kts 207°
2026-04-17 10:58 57.00341 20.82992 36217 ft 458 kts 207°
2026-04-17 10:59 56.94619 20.77880 36215 ft 458 kts 207°
2026-04-17 10:59 56.88880 20.72773 36212 ft 459 kts 207°
2026-04-17 11:00 56.83167 20.67711 36217 ft 459 kts 207°
2026-04-17 11:00 56.77423 20.62637 36219 ft 459 kts 207°
2026-04-17 11:01 56.71675 20.57573 36217 ft 458 kts 207°
2026-04-17 11:01 56.65926 20.52525 36218 ft 458 kts 207°
2026-04-17 11:02 56.60178 20.47495 36220 ft 458 kts 207°
2026-04-17 11:02 56.54432 20.42485 36219 ft 458 kts 206°
2026-04-17 11:03 56.48686 20.37490 36219 ft 458 kts 207°
2026-04-17 11:03 56.42975 20.32543 36224 ft 458 kts 206°
2026-04-17 11:04 56.37230 20.27583 36228 ft 457 kts 206°
2026-04-17 11:04 56.31486 20.22640 36228 ft 457 kts 206°
2026-04-17 11:05 56.25743 20.17714 36223 ft 457 kts 206°
2026-04-17 11:05 56.20002 20.12805 36228 ft 456 kts 206°
2026-04-17 11:06 56.14253 20.07996 36226 ft 456 kts 202°
2026-04-17 11:06 56.08215 20.04705 36235 ft 456 kts 195°
2026-04-17 11:07 56.02077 20.01764 36234 ft 456 kts 195°
2026-04-17 11:07 55.96074 19.98844 36236 ft 456 kts 196°
2026-04-17 11:08 55.89961 19.95809 36240 ft 456 kts 196°
2026-04-17 11:08 55.83853 19.92758 36242 ft 456 kts 196°
2026-04-17 11:09 55.77745 19.89713 36241 ft 456 kts 196°
2026-04-17 11:09 55.71676 19.86700 36241 ft 455 kts 196°
2026-04-17 11:10 55.62517 19.82173 36248 ft 455 kts 196°
2026-04-17 11:10 55.56409 19.79167 36239 ft 455 kts 196°
2026-04-17 11:11 55.50302 19.76172 36237 ft 455 kts 196°
2026-04-17 11:11 55.44197 19.73187 36249 ft 455 kts 196°
2026-04-17 11:12 55.38088 19.70209 36250 ft 455 kts 196°
2026-04-17 11:12 55.32027 19.67264 36250 ft 455 kts 196°
2026-04-17 11:13 55.25921 19.64306 36247 ft 455 kts 196°
2026-04-17 11:13 55.19819 19.61360 36254 ft 454 kts 196°
2026-04-17 11:14 55.13721 19.58425 36261 ft 455 kts 196°
2026-04-17 11:14 55.07615 19.55496 36258 ft 455 kts 196°
2026-04-17 11:15 55.01496 19.52570 36262 ft 456 kts 196°
2026-04-17 11:15 54.95436 19.49681 36263 ft 456 kts 196°
2026-04-17 11:16 54.89299 19.46765 36265 ft 457 kts 196°
2026-04-17 11:16 54.83154 19.43853 36266 ft 457 kts 196°
2026-04-17 11:17 54.77010 19.40952 36265 ft 457 kts 196°
2026-04-17 11:17 54.70864 19.38059 36260 ft 457 kts 196°
2026-04-17 11:18 54.64714 19.35173 36269 ft 457 kts 196°
2026-04-17 11:18 54.58581 19.32304 36269 ft 457 kts 196°
2026-04-17 11:19 54.52479 19.29458 36271 ft 457 kts 196°
2026-04-17 11:19 54.46342 19.26605 36271 ft 456 kts 196°
2026-04-17 11:20 54.40215 19.23765 36273 ft 456 kts 196°
2026-04-17 11:20 54.34096 19.20937 36279 ft 455 kts 196°
2026-04-17 11:21 54.27973 19.18116 36277 ft 455 kts 196°
2026-04-17 11:21 54.21864 19.15310 36269 ft 455 kts 196°
2026-04-17 11:22 54.15787 19.12335 36275 ft 454 kts 199°
2026-04-17 11:22 54.09785 19.09007 36276 ft 453 kts 200°
2026-04-17 11:23 54.03785 19.05681 36275 ft 454 kts 199°
2026-04-17 11:23 53.97831 19.02444 36269 ft 454 kts 199°
2026-04-17 11:24 53.91951 18.99283 36275 ft 454 kts 199°
2026-04-17 11:24 53.85904 18.96044 36269 ft 454 kts 199°
2026-04-17 11:25 53.79872 18.92822 36272 ft 454 kts 199°
2026-04-17 11:25 53.73841 18.89608 36255 ft 454 kts 199°
2026-04-17 11:26 53.67811 18.86405 36264 ft 454 kts 199°
2026-04-17 11:26 53.61782 18.83211 36265 ft 454 kts 199°
2026-04-17 11:27 53.55793 18.80047 36267 ft 454 kts 199°
2026-04-17 11:27 53.49724 18.77020 36256 ft 455 kts 196°
2026-04-17 11:28 53.44566 18.74945 36263 ft 455 kts 194°
2026-04-17 11:28 53.38424 18.72602 36261 ft 455 kts 194°
2026-04-17 11:29 53.32255 18.70219 36257 ft 455 kts 195°
2026-04-17 11:29 53.26085 18.67801 36245 ft 455 kts 195°
2026-04-17 11:30 53.19927 18.65379 36259 ft 454 kts 195°
2026-04-17 11:30 53.13763 18.62959 36255 ft 454 kts 195°
2026-04-17 11:31 53.07611 18.60552 36255 ft 454 kts 195°
2026-04-17 11:31 53.01448 18.58150 36245 ft 455 kts 195°
2026-04-17 11:32 52.95306 18.55763 36255 ft 455 kts 195°
2026-04-17 11:32 52.89174 18.53386 36253 ft 455 kts 195°
2026-04-17 11:33 52.82987 18.50996 36253 ft 456 kts 195°
2026-04-17 11:33 52.76808 18.48615 36243 ft 456 kts 195°
2026-04-17 11:34 52.70623 18.46239 36252 ft 456 kts 195°
2026-04-17 11:34 52.64422 18.43864 36248 ft 456 kts 195°
2026-04-17 11:35 52.58236 18.41502 36252 ft 457 kts 195°
2026-04-17 11:35 52.52046 18.39144 36248 ft 457 kts 195°
2026-04-17 11:36 52.45880 18.36803 36247 ft 457 kts 195°
2026-04-17 11:36 52.39673 18.34453 36248 ft 457 kts 195°
2026-04-17 11:37 52.33471 18.32112 36243 ft 457 kts 195°
2026-04-17 11:37 52.27253 18.29771 36234 ft 457 kts 195°
2026-04-17 11:38 52.21095 18.27459 36244 ft 457 kts 195°
2026-04-17 11:38 52.14890 18.25136 36242 ft 457 kts 195°
2026-04-17 11:39 52.08689 18.22822 36241 ft 457 kts 195°
2026-04-17 11:39 52.02476 18.20510 36243 ft 457 kts 195°
2026-04-17 11:40 51.96287 18.18213 36244 ft 457 kts 195°
2026-04-17 11:40 51.90078 18.15915 36237 ft 457 kts 195°
2026-04-17 11:41 51.83876 18.13627 36227 ft 457 kts 195°
2026-04-17 11:41 51.77710 18.11357 36235 ft 457 kts 195°
2026-04-17 11:42 51.71503 18.09080 36237 ft 457 kts 195°
2026-04-17 11:42 51.65297 18.06809 36225 ft 457 kts 195°
2026-04-17 11:43 51.59095 18.04545 36216 ft 457 kts 195°
2026-04-17 11:43 51.52898 18.02289 36229 ft 456 kts 195°
2026-04-17 11:44 51.46630 18.00588 36215 ft 460 kts 183°
2026-04-17 11:44 51.40257 18.00560 36241 ft 460 kts 181°
2026-04-17 11:45 51.33842 18.00617 36219 ft 461 kts 182°
2026-04-17 11:45 51.27414 18.00609 36218 ft 460 kts 182°
2026-04-17 11:46 51.21046 18.00560 36219 ft 461 kts 182°
2026-04-17 11:46 51.14628 18.00499 36221 ft 461 kts 182°
2026-04-17 11:47 51.08216 18.00439 36202 ft 460 kts 182°
2026-04-17 11:47 51.01808 18.00382 36221 ft 460 kts 182°
2026-04-17 11:48 50.95409 18.00325 36210 ft 461 kts 182°
2026-04-17 11:48 50.88998 18.00269 36209 ft 461 kts 182°
2026-04-17 11:49 50.82614 18.00213 36203 ft 461 kts 182°
2026-04-17 11:49 50.76195 18.00157 36213 ft 462 kts 182°
2026-04-17 11:50 50.69753 18.00101 36207 ft 462 kts 182°
2026-04-17 11:50 50.63309 18.00045 36209 ft 463 kts 182°
2026-04-17 11:51 50.56988 17.99990 36209 ft 464 kts 182°
2026-04-17 11:51 50.50576 17.99934 36205 ft 464 kts 182°
2026-04-17 11:52 50.44113 17.99879 36209 ft 464 kts 182°
2026-04-17 11:52 50.37664 17.99823 36197 ft 463 kts 182°
2026-04-17 11:53 50.31215 17.99773 36210 ft 463 kts 182°
2026-04-17 11:53 50.24769 17.99734 36215 ft 463 kts 182°
2026-04-17 11:54 50.18307 17.99695 36211 ft 464 kts 182°
2026-04-17 11:54 50.11847 17.99655 36207 ft 464 kts 183°
2026-04-17 11:55 50.05413 17.99615 36213 ft 465 kts 183°
2026-04-17 11:55 49.99074 17.98331 36221 ft 459 kts 197°
2026-04-17 11:56 49.92882 17.95908 36199 ft 459 kts 198°
2026-04-17 11:56 49.86667 17.93470 36207 ft 460 kts 198°
2026-04-17 11:57 49.80443 17.91095 36214 ft 461 kts 198°
2026-04-17 11:57 49.74199 17.88750 36208 ft 462 kts 198°
2026-04-17 11:58 49.67984 17.86430 36222 ft 462 kts 198°
2026-04-17 11:58 49.61717 17.84096 36207 ft 463 kts 198°
2026-04-17 11:59 49.55446 17.81765 36210 ft 463 kts 198°
2026-04-17 11:59 49.49176 17.79439 36179 ft 463 kts 198°
2026-04-17 12:00 49.42955 17.77137 36193 ft 463 kts 198°
2026-04-17 12:00 49.36681 17.74823 36196 ft 463 kts 198°
2026-04-17 12:01 49.30403 17.72514 36180 ft 463 kts 198°
2026-04-17 12:01 49.24179 17.70230 36181 ft 462 kts 198°
2026-04-17 12:02 49.17922 17.67938 36199 ft 461 kts 198°
2026-04-17 12:02 49.11663 17.65652 36199 ft 462 kts 198°
2026-04-17 12:03 49.05445 17.63387 36196 ft 462 kts 198°
2026-04-17 12:03 48.99198 17.61117 36211 ft 462 kts 198°
2026-04-17 12:04 48.92939 17.58850 36212 ft 463 kts 198°
2026-04-17 12:04 48.86659 17.56580 36195 ft 463 kts 198°
2026-04-17 12:05 48.80406 17.54327 36190 ft 463 kts 199°
2026-04-17 12:05 48.74126 17.52069 36187 ft 463 kts 199°
2026-04-17 12:06 48.67840 17.49815 36180 ft 463 kts 198°
2026-04-17 12:06 48.61598 17.47581 36156 ft 464 kts 198°
2026-04-17 12:07 48.55316 17.45340 36172 ft 463 kts 198°
2026-04-17 12:07 48.49042 17.43107 36175 ft 463 kts 198°
2026-04-17 12:08 48.42754 17.40875 36173 ft 463 kts 198°
2026-04-17 12:08 48.36482 17.38654 36171 ft 462 kts 198°
2026-04-17 12:09 48.30255 17.36454 36182 ft 462 kts 198°
2026-04-17 12:09 48.23979 17.34243 36183 ft 462 kts 198°
2026-04-17 12:10 48.17721 17.32042 36177 ft 461 kts 198°
2026-04-17 12:10 48.11468 17.29849 36201 ft 461 kts 198°
2026-04-17 12:11 48.05270 17.27636 36185 ft 461 kts 199°
2026-04-17 12:12 47.95941 17.24275 36173 ft 460 kts 199°
2026-04-17 12:12 47.89721 17.22045 36182 ft 459 kts 199°
2026-04-17 12:13 47.83501 17.19824 36171 ft 459 kts 199°
2026-04-17 12:13 47.80387 17.18714 35819 ft 460 kts 199°
2026-04-17 12:13 47.77295 17.17616 35445 ft 454 kts 199°
2026-04-17 12:13 47.74232 17.16531 35092 ft 450 kts 199°
2026-04-17 12:14 47.71198 17.15456 34712 ft 447 kts 199°
2026-04-17 12:14 47.68219 17.14401 34339 ft 444 kts 199°
2026-04-17 12:14 47.65221 17.13339 33916 ft 441 kts 199°
2026-04-17 12:14 47.62244 17.12285 33491 ft 439 kts 199°
2026-04-17 12:15 47.59283 17.11238 33091 ft 436 kts 199°
2026-04-17 12:15 47.56346 17.10201 32711 ft 433 kts 199°
2026-04-17 12:15 47.53427 17.09172 32321 ft 430 kts 199°
2026-04-17 12:15 47.50532 17.08153 31949 ft 427 kts 199°
2026-04-17 12:16 47.47651 17.07139 31578 ft 424 kts 199°
2026-04-17 12:16 47.44789 17.06133 31212 ft 422 kts 199°
2026-04-17 12:16 47.41940 17.05133 30850 ft 420 kts 199°
2026-04-17 12:16 47.39098 17.04136 30488 ft 418 kts 199°
2026-04-17 12:17 47.36276 17.03148 30066 ft 416 kts 198°
2026-04-17 12:17 47.33472 17.02167 29671 ft 413 kts 198°
2026-04-17 12:17 47.30688 17.01195 29281 ft 409 kts 198°
2026-04-17 12:17 47.28859 17.00557 29040 ft 407 kts 198°
2026-04-17 12:18 47.26215 16.99635 28672 ft 404 kts 198°
2026-04-17 12:18 47.23485 16.98684 28289 ft 401 kts 198°
2026-04-17 12:18 47.20774 16.97740 27914 ft 398 kts 198°
2026-04-17 12:18 47.18089 16.96807 27553 ft 395 kts 198°
2026-04-17 12:19 47.15421 16.95880 27172 ft 392 kts 198°
2026-04-17 12:19 47.12774 16.94961 26825 ft 389 kts 198°
2026-04-17 12:19 47.10148 16.94051 26465 ft 387 kts 198°
2026-04-17 12:19 47.07530 16.93144 26109 ft 384 kts 198°
2026-04-17 12:20 47.04966 16.92257 25760 ft 382 kts 198°
2026-04-17 12:20 47.02381 16.91363 25399 ft 380 kts 198°
2026-04-17 12:20 46.99816 16.90477 25050 ft 378 kts 198°
2026-04-17 12:20 46.97261 16.89595 24699 ft 377 kts 198°
2026-04-17 12:21 46.94713 16.88717 24342 ft 374 kts 197°
2026-04-17 12:21 46.92184 16.87847 23997 ft 372 kts 197°
2026-04-17 12:21 46.89659 16.86978 23635 ft 370 kts 197°
2026-04-17 12:21 46.87179 16.86126 23233 ft 369 kts 197°
2026-04-17 12:22 46.84690 16.85272 22855 ft 366 kts 197°
2026-04-17 12:22 46.82221 16.84426 22496 ft 363 kts 197°
2026-04-17 12:22 46.79771 16.83587 22145 ft 360 kts 197°
2026-04-17 12:22 46.77332 16.82752 21801 ft 358 kts 197°
2026-04-17 12:23 46.74915 16.81925 21447 ft 355 kts 197°
2026-04-17 12:23 46.72515 16.81105 21115 ft 353 kts 197°
2026-04-17 12:23 46.70162 16.80302 20786 ft 350 kts 197°
2026-04-17 12:23 46.67791 16.79493 20449 ft 348 kts 196°
2026-04-17 12:24 46.65441 16.78692 20118 ft 346 kts 196°
2026-04-17 12:24 46.63101 16.77895 19787 ft 344 kts 196°
2026-04-17 12:24 46.60773 16.77103 19458 ft 342 kts 196°
2026-04-17 12:24 46.58454 16.76314 19125 ft 341 kts 196°
2026-04-17 12:25 46.56151 16.75532 18797 ft 339 kts 196°
2026-04-17 12:25 46.53888 16.74764 18476 ft 338 kts 196°
2026-04-17 12:25 46.51605 16.73990 18110 ft 337 kts 196°
2026-04-17 12:25 46.49327 16.73218 17750 ft 335 kts 196°
2026-04-17 12:26 46.47064 16.72452 17419 ft 333 kts 196°
2026-04-17 12:26 46.44812 16.71690 17077 ft 331 kts 195°
2026-04-17 12:26 46.42579 16.70936 16756 ft 328 kts 195°
2026-04-17 12:26 46.40372 16.70110 16431 ft 324 kts 204°
2026-04-17 12:27 46.38375 16.68721 16222 ft 315 kts 211°
2026-04-17 12:27 46.36478 16.67208 15897 ft 314 kts 212°
2026-04-17 12:27 46.34575 16.65663 15590 ft 312 kts 212°
2026-04-17 12:27 46.32678 16.64133 15272 ft 311 kts 212°
2026-04-17 12:28 46.30783 16.62618 14951 ft 310 kts 212°
2026-04-17 12:28 46.28896 16.61124 14646 ft 309 kts 212°
2026-04-17 12:28 46.27011 16.59640 14333 ft 308 kts 212°
2026-04-17 12:28 46.25126 16.58164 14024 ft 307 kts 212°
2026-04-17 12:29 46.23267 16.56713 13679 ft 307 kts 211°
2026-04-17 12:29 46.21387 16.55248 13348 ft 306 kts 211°
2026-04-17 12:29 46.19514 16.53792 13004 ft 305 kts 211°
2026-04-17 12:29 46.17646 16.52341 12680 ft 303 kts 210°
2026-04-17 12:30 46.15791 16.50902 12360 ft 301 kts 210°
2026-04-17 12:30 46.13952 16.49476 12062 ft 299 kts 210°
2026-04-17 12:30 46.12122 16.48059 11763 ft 298 kts 210°
2026-04-17 12:30 46.10420 16.46449 11431 ft 295 kts 226°
2026-04-17 12:31 46.09084 16.44235 11163 ft 291 kts 233°
2026-04-17 12:31 46.07848 16.41934 10868 ft 289 kts 234°
2026-04-17 12:31 46.06634 16.39628 10590 ft 288 kts 234°
2026-04-17 12:31 46.05433 16.37331 10317 ft 286 kts 234°
2026-04-17 12:32 46.04246 16.35045 10106 ft 282 kts 234°
2026-04-17 12:32 46.03085 16.32794 9883 ft 277 kts 235°
2026-04-17 12:32 46.01959 16.30604 9667 ft 274 kts 235°
2026-04-17 12:32 46.00835 16.28415 9485 ft 269 kts 235°
2026-04-17 12:33 45.99753 16.26301 9348 ft 267 kts 235°
2026-04-17 12:33 45.98654 16.24150 9242 ft 267 kts 235°
2026-04-17 12:33 45.97543 16.21969 9173 ft 274 kts 234°
2026-04-17 12:33 45.96398 16.19721 9142 ft 283 kts 234°
2026-04-17 12:34 45.95229 16.17422 8959 ft 286 kts 234°
2026-04-17 12:34 45.94064 16.15130 8766 ft 281 kts 234°
2026-04-17 12:34 45.92921 16.12886 8452 ft 282 kts 234°
2026-04-17 12:34 45.91764 16.10629 8180 ft 280 kts 233°
2026-04-17 12:35 45.90525 16.08477 7841 ft 280 kts 230°
2026-04-17 12:35 45.89237 16.06337 7386 ft 285 kts 230°
2026-04-17 12:35 45.87925 16.04174 6957 ft 289 kts 230°
2026-04-17 12:35 45.86593 16.01984 6502 ft 293 kts 230°
2026-04-17 12:37 45.77626 15.87009 3358 ft 273 kts 229°
2026-04-17 12:37 45.76412 15.84942 3046 ft 266 kts 229°
2026-04-17 12:38 45.75081 15.83267 2992 ft 245 kts 205°
2026-04-17 12:38 45.73508 15.82800 2971 ft 221 kts 169°
2026-04-17 12:38 45.72135 15.83517 3005 ft 207 kts 147°
2026-04-17 12:38 45.70899 15.84581 3012 ft 207 kts 146°
2026-04-17 12:39 45.69677 15.85687 3003 ft 207 kts 145°
2026-04-17 12:39 45.68582 15.86943 2953 ft 197 kts 129°
2026-04-17 12:39 45.67701 15.88410 2731 ft 191 kts 128°
2026-04-17 12:39 45.66842 15.89784 2484 ft 185 kts 129°
2026-04-17 12:40 45.66006 15.91140 2211 ft 179 kts 123°
2026-04-17 12:40 45.65641 15.92722 2006 ft 167 kts 77°
2026-04-17 12:40 45.66223 15.94046 2027 ft 158 kts 46°
2026-04-17 12:40 45.66899 15.95303 2028 ft 159 kts 55°
2026-04-17 12:41 45.67578 15.96578 1941 ft 159 kts 49°
2026-04-17 12:41 45.68294 15.97718 1763 ft 148 kts 46°
2026-04-17 12:41 45.68981 15.98770 1556 ft 140 kts 45°
2026-04-17 12:41 45.69633 15.99774 1406 ft 140 kts 49°
2026-04-17 12:42 45.70305 16.00799 1207 ft 140 kts 47°
2026-04-17 12:42 45.70967 16.01804 1042 ft 138 kts 46°
2026-04-17 12:42 45.71626 16.02819 877 ft 138 kts 47°
2026-04-17 12:42 45.72265 16.03799 676 ft 130 kts 46°
2026-04-17 12:43 45.72882 16.04737 472 ft 130 kts 47°
2026-04-17 12:43 45.73485 16.05654 367 ft 123 kts 45°
2026-04-17 12:43 45.73993 16.06422 358 ft 80 kts 46°
2026-04-17 12:43 45.74345 16.06955 365 ft 68 kts 46°
2026-04-17 12:44 45.74602 16.07345 361 ft 35 kts 46°
2026-04-17 12:44 45.74641 16.07565 354 ft 16 kts 135°
2026-04-17 12:44 45.74565 16.07665 359 ft 14 kts 138°
2026-04-17 12:44 45.74491 16.07759 351 ft 14 kts 137°
2026-04-17 12:45 45.74422 16.07851 356 ft 14 kts 136°
2026-04-17 12:45 45.74343 16.07887 358 ft 13 kts 210°
2026-04-17 12:45 45.74276 16.07792 357 ft 14 kts 225°
2026-04-17 12:45 45.74236 16.07764 357 ft 3 kts 160°
2026-04-17 12:46 45.74216 16.07785 360 ft 1 kts 136°
2026-04-17 12:46 45.74196 16.07814 358 ft 5 kts 135°
2026-04-17 12:46 45.74187 16.07826 360 ft 0 kts 134°